Powrót do katalogu

STARLINK-32456

AktywnyŁącznośćVLEO
NORAD 62041·PAYLOAD·🇺🇸 United States

Wystrzelony Nov 21, 2024 z Cape Canaveral Space Force Station

Loading…

Następne Przeloty (najbliższe 24 godziny)

TLE

ŚwieżeSource: CelesTrak SupGP

Epoka: Sep 15, 2026, 03:48 UTC

1 62041C 24216K   26258.15881944 -.00022976  00000+0 -83232-3 0  2587
2 62041  42.9991 266.5561 0001359 268.0004 304.6831 15.27584550    16

Śledź STARLINK-32456 w czasie rzeczywistym z AllMySat

Download on the App Store